Weather History for KWAL - August, 2013

Change the Weather History Date:

Tuesday, August 27, 2013

  Actual Average Record
Temperature  
Mean Temperature 82 °F 74 °F  
Max Temperature 90 °F 82 °F 97 °F (1987)
Min Temperature 73 °F 67 °F 58 °F (1984)
Degree Days  
Heating Degree Days 0    
Month to date heating degree days 0  
Since 1 June heating degree days 0  
Since 1 July heating degree days 0  
Cooling Degree Days 17    
Month to date cooling degree days 295  
Year to date cooling degree days 1204  
Since 1 June cooling degree days 1073  
Growing Degree Days 31 (Base 50)    
Moisture  
Dew Point 65 °F    
Average Humidity 62    
Maximum Humidity 74    
Minimum Humidity 50    
Precipitation  
Precipitation 0.00 in 0.11 in 6.18 in (2011)
Month to date precipitation 1.28 3.73  
Year to date precipitation 28.90 26.93  
Sea Level Pressure  
Sea Level Pressure 29.94 in    
Wind  
Wind Speed 8 mph (West)    
Max Wind Speed 14 mph    
Max Gust Speed 19 mph    
Visibility 9 miles    
Events      
T = Trace of Precipitation, MM = Missing Value Source: NWS Daily Summary

Daily Weather History Graph

Daily Weather History Graph

Search for Another Location

Airport or City:

Trip Planner

Search our weather history database for the weather conditions in past years. The results will help you decide how hot, cold, wet, or windy it might be!

Date:

Astronomy

Aug. 27, 2013 Rise Set
Actual Time 6:27 AM EDT 7:38 PM EDT
Civil Twilight 6:00 AM EDT 8:05 PM EDT
Nautical Twilight 5:27 AM EDT 8:37 PM EDT
Astronomical Twilight 4:54 AM EDT 9:11 PM EDT
Moon 11:37 PM EDT (8/27) 1:16 PM EDT (8/27)
Length of Visible Light 14h 04m
Length of Day
13h 10m
Waning Gibbous, 57% of the Moon is Illuminated
Aug 27
Waning Gibbous
Aug 28
Last Quarter
Sep 5
New
Sep 12
First Quarter
Sep 19
Full

Hourly Weather History & Observations

Time (EDT) Temp. Heat Index Dew Point Humidity Pressure Visibility Wind Dir Wind Speed Gust Speed Precip Events Conditions
12:54 AM 73.0 °F - 60.1 °F 64% 30.03 in 10.0 mi WSW 8.1 mph - N/A   Clear
1:54 AM 75.0 °F - 59.0 °F 57% 30.01 in 10.0 mi West 11.5 mph - N/A   Clear
2:54 AM 73.0 °F - 59.0 °F 61% 30.00 in 10.0 mi West 9.2 mph - N/A   Clear
3:54 AM 73.9 °F - 60.1 °F 62% 29.98 in 10.0 mi West 9.2 mph - N/A   Clear
4:54 AM 73.9 °F - 60.1 °F 62% 29.97 in 10.0 mi West 9.2 mph - N/A   Clear
5:54 AM 73.9 °F - 60.1 °F 62% 29.96 in 10.0 mi WSW 9.2 mph - N/A   Clear
6:54 AM 73.9 °F - 61.0 °F 64% 29.97 in 10.0 mi West 11.5 mph - N/A   Clear
7:54 AM 75.0 °F - 62.1 °F 64% 29.97 in 10.0 mi West 11.5 mph - N/A   Clear
8:54 AM 79.0 °F - 64.0 °F 60% 29.96 in 10.0 mi West 12.7 mph - N/A   Clear
9:54 AM 81.0 °F 82.5 °F 64.0 °F 56% 29.94 in 10.0 mi West 10.4 mph - N/A   Clear
10:54 AM 84.0 °F 85.8 °F 64.9 °F 53% 29.94 in 10.0 mi WNW 6.9 mph - N/A   Clear
11:54 AM 87.1 °F 89.2 °F 66.0 °F 49% 29.94 in 10.0 mi Variable 5.8 mph - N/A   Mostly Cloudy
12:54 PM 88.0 °F 90.7 °F 66.9 °F 49% 29.93 in 10.0 mi NW 9.2 mph - N/A   Partly Cloudy
1:54 PM 88.0 °F 90.7 °F 66.9 °F 49% 29.92 in 10.0 mi Variable 4.6 mph - N/A   Clear
2:54 PM 88.0 °F 90.7 °F 66.9 °F 49% 29.90 in 10.0 mi West 10.4 mph 17.3 mph N/A   Partly Cloudy
3:54 PM 88.0 °F 90.7 °F 66.9 °F 49% 29.89 in 10.0 mi West 10.4 mph - N/A   Scattered Clouds
4:54 PM 86.0 °F 89.4 °F 68.0 °F 55% 29.90 in 10.0 mi West 8.1 mph - N/A   Mostly Cloudy
5:54 PM 87.1 °F 90.6 °F 68.0 °F 53% 29.90 in 10.0 mi Variable 4.6 mph - N/A   Clear
6:54 PM 84.0 °F 87.8 °F 69.1 °F 61% 29.90 in 9.0 mi WSW 4.6 mph - N/A   Partly Cloudy
7:54 PM 81.0 °F 83.8 °F 68.0 °F 65% 29.90 in 8.0 mi West 3.5 mph - N/A   Clear
8:54 PM 81.0 °F 83.3 °F 66.9 °F 62% 29.91 in 8.0 mi West 4.6 mph - N/A   Clear
9:54 PM 79.0 °F - 66.9 °F 66% 29.91 in 8.0 mi WSW 5.8 mph - N/A   Clear
10:54 PM 79.0 °F - 69.1 °F 72% 29.92 in 7.0 mi West 5.8 mph - N/A   Clear
11:54 PM 78.1 °F - 69.1 °F 74% 29.92 in 7.0 mi West 5.8 mph - N/A   Clear